Tracking 19827 objects as of 21-Aug-2019
HD Live streaming from Space Station
objects crossing your sky now

FENGYUN 1C DEB

Track FENGYUN 1C DEB now!
10-day predictions


NORAD ID: 30417
Int'l Code: 1999-025AEG
Perigee: 812.0 km
Apogee: 906.8 km
Inclination: 98.7 °
Period: 102.0 minutes
Semi major axis: 7230 km
RCS: 0.0259 m2 (small)
Launch date: May 10, 1999
Source: People's Republic of China (PRC)
Launch site: Taiyaun Space Center, China (TSC)

Note: This is SATELLITE DEBRIS
aabbcc
Your satellite tracking list
Your tracking list is empty




NASA's NSSDC Master Catalog

Two Line Element Set (TLE):
1 30417U 99025AEG 19232.62069830 +.00000054 +00000-0 +52040-4 0  9995
2 30417 098.7380 261.1681 0065584 212.5888 264.6452 14.12087040648249
Source of the keplerian elements: AFSPC